Regional Weather Roundup
Issued by NWS Green Bay, WI

Home | Current Version | Previous Version | Text Only | Print | Product List | Glossary On
Versions: 1 2 3 4 5 6 7 8 9 10 11 12 13 14 15 16 17 18 19 20 21 22 23 24 25 26 27 28 29 30 31 32 33 34 35 36 37 38 39 40 41 42 43 44 45 46 47 48 49 50
000
ASUS43 KGRB 172111
RWRGRB

NORTH-CENTRAL AND NORTHEAST WISCONSIN REGIONAL WEATHER ROUNDUP
NATIONAL WEATHER SERVICE GREEN BAY WI
400 PM CDT THU AUG 17 2017

WIZ005-009-010>012-018-019-172200-
NORTH CENTRAL WISCONSIN

CITY           SKY/WX    TMP DP  RH WIND       PRES   REMARKS
IRONWOOD       LGT RAIN  63  62  97 W9        29.59R
MANITOWISH WTR RAIN      66  66 100 NW13      29.58R
ARBOR VITAE    LGT RAIN  72  66  81 NW12G17   29.57R
EAGLE RIVER    LGT RAIN  68  67  95 CALM      29.56F
LAND O LAKES   CLOUDY    71  63  76 W5        29.58S
RHINELANDER    CLOUDY    70  68  93 SW5       29.56S
PHILLIPS       RAIN      67  67  99 W6        29.57R
ANTIGO         CLOUDY    68  67  98 SW10      29.56S
TOMAHAWK       HVY RAIN  69  65  89 W8        29.56R
MERRILL        NOT AVBL
$$

WIZ013-073-172200-
NORTHEAST WISCONSIN

CITY           SKY/WX    TMP DP  RH WIND       PRES   REMARKS
IRON MOUNTAIN  PTSUNNY   76  62  62 S15       29.53S
MARINETTE      CLOUDY    75  66  73 VRB7      29.55S
OCONTO         CLOUDY    74  65  72 SW13G18   29.55F
$$

WIZ017-030-035>037-045-172200-
CENTRAL WISCONSIN

CITY           SKY/WX    TMP DP  RH WIND       PRES   REMARKS
MEDFORD        CLOUDY    70  64  81 W14G22    29.58R
WAUSAU         LGT RAIN  70  67  90 W16G22    29.53S
MOSINEE        PTSUNNY   72  66  83 W17G29    29.57R
MARSHFIELD     CLOUDY    73  65  75 W14G24    29.58R
WISC RAPIDS    PTSUNNY   75  68  78 W14G20    29.60S
STEVENS POINT  CLOUDY    71  66  83 SW13G26   29.58R
WAUPACA        PTSUNNY   75  69  81 SW10      29.58S
SHAWANO        CLOUDY    74  67  79 S10G16    29.54F
CLINTONVILLE   CLOUDY    72  64  78 SW13      29.56S
WAUTOMA        CLOUDY    75  67  76 SW15G21   29.60R
$$

WIZ038-039-048-051-172200-
FOX VALLEY

CITY           SKY/WX    TMP DP  RH WIND       PRES   REMARKS
NWS GREEN BAY  CLOUDY    74  67  78 SW15G24   29.57S
APPLETON       PTSUNNY   73  63  68 SW17G23   29.58F
OSHKOSH        PTSUNNY   75  65  70 SW17G26   29.59F
FOND DU LAC    PTSUNNY   74  67  78 SW10G21   29.62S
$$

WIZ022-050-052-172200-
EAST CENTRAL WISCONSIN

CITY           SKY/WX    TMP DP  RH WIND       PRES   REMARKS
EPHRAIM        CLOUDY    72  69  90 S9        29.56F
WASHINGTON ISL RAIN      69  68  94 S10G18    29.57S
STURGEON BAY   PTSUNNY   76  66  71 SW15G21   29.57F
MANITOWOC      CLOUDY    77  64  64 SW17G26   29.60R
SHEBOYGAN      CLOUDY    75  70  84 SW9       29.62R
$$

LMZ563-521-522-541>543-172200-
LAKESHORE

STATION/POSITION TIME  TEMP    WIND        PRES    VSBY  WAVE
                       AIR SEA DIR/SP/G                  HT/PER
                 (UTC) (F)     (DEG/KT/KT) (MB)    (MI)  (FT/S)
SHEBOYGAN LKSHOR 2100   74     230/ 15/ 18 1002.3R
KEWAUNEE LKSHORE 2042   79     220/  8/ 16 1001.0F
NORTHPORT PIER   2040   71     160/  8/ 15 1001.4F
N MID LAKE BUOY  2050   69 68  180/ 17/ 21 1001.7F         4/ 5
S GREEN BAY BUOY 2030   74 72  200/ 14/ 17 1001.0S
SISTER BAY LKSHO 2103   72     150/ 11/ 14   N/A
MENOMINEE LKSHOR 2042   76     200/ 12/ 20 1000.5F
$$




USA.gov is the U.S. government's official web portal to all federal, state and local government web resources and services.